This demonstration page uses our WeatherBlox Daily Observations layout. Learn more.

Left ArrowRight Arrow

39.51506, -84.39828

Hourly Observations for February 16, 2017

Temp ( °F °C ) Dew Point ( °F °C ) Humidity (%) Winds ( mph kmh ) Pressure ( in mb ) Visibility ( mi km ) Precip ( " mm )
12:53 am 00:53 Clear 29 -1.7 18 -7.8 63 63 WNW 3 6 29.90 1012 10 16 0.00 0.00
1:53 am 01:53 Mostly Clear 28 -2.2 19 -7.2 69 69 WNW 6 9 29.90 1012 10 16 0.00 0.00
2:53 am 02:53 Clear 28 -2.2 19 -7.2 69 69 W 3 6 29.89 1012 10 16 0.00 0.00
3:53 am 03:53 Mostly Clear 28 -2.2 19 -7.2 69 69 W 5 7 29.88 1012 10 16 0.00 0.00
4:53 am 04:53 Cloudy 27 -2.8 20 -6.7 75 75 W 6 9 29.90 1013 10 16 0.00 0.00
5:53 am 05:53 Clear 26 -3.3 19 -7.2 75 75 W 5 7 29.92 1013 10 16 0.00 0.00
6:53 am 06:53 Clear 26 -3.3 19 -7.2 75 75 WNW 3 6 29.93 1014 10 16 0.00 0.00
7:53 am 07:53 Sunny 26 -3.3 19 -7.2 75 75 WNW 3 6 29.97 1015 10 16 0.00 0.00
8:53 am 08:53 Sunny 29 -1.7 20 -6.7 69 69 WNW 8 13 29.98 1015 10 16 0.00 0.00
9:53 am 09:53 Cloudy 30 -1.1 19 -7.2 64 64 VRB 7 11 29.99 1016 10 16 0.00 0.00
10:53 am 10:53 Cloudy 32 0 19 -7.2 59 59 NW 7 11 30.00 1016 10 16 0.00 0.00
11:53 am 11:53 Cloudy 32 0 18 -7.8 56 56 W 5 7 30.01 1016 10 16 0.00 0.00
12:53 pm 12:53 Cloudy 34 1.1 18 -7.8 52 52 W 7 11 29.98 1015 10 16 0.00 0.00
1:53 pm 13:53 Cloudy 35 1.7 18 -7.8 50 50 SSW 7 11 29.97 1015 10 16 0.00 0.00
2:53 pm 14:53 Cloudy 36 2.2 17 -8.3 46 46 WNW 7 11 29.96 1015 10 16 0.00 0.00
3:53 pm 15:53 Cloudy 36 2.2 18 -7.8 48 48 WSW 5 7 29.96 1014 10 16 0.00 0.00
4:53 pm 16:53 Mostly Cloudy 37 2.8 19 -7.2 48 48 SW 7 11 29.93 1014 10 16 0.00 0.00
5:53 pm 17:53 Sunny 34 1.1 20 -6.7 56 56 S 7 11 29.92 1013 10 16 0.00 0.00
6:53 pm 18:53 Clear 34 1.1 19 -7.2 54 54 SE 6 9 29.91 1013 10 16 0.00 0.00
7:53 pm 19:53 Clear 33 0.6 20 -6.7 58 58 SE 7 11 29.90 1013 10 16 0.00 0.00
8:53 pm 20:53 Clear 33 0.6 19 -7.2 56 56 SE 7 11 29.89 1012 10 16 0.00 0.00
9:53 pm 21:53 Clear 36 2.2 19 -7.2 50 50 SSE 6 9 29.91 1013 10 16 0.00 0.00
10:53 pm 22:53 Cloudy 36 2.2 19 -7.2 50 50 SE 6 9 29.91 1013 10 16 0.00 0.00
11:53 pm 23:53 Cloudy 36 2.2 20 -6.7 52 52 ESE 6 9 29.89 1012 10 16 0.00 0.00

Powered by AerisWeather